GFSGL_sfc_dewp_000.txt.gz
Dewpoint
48 50 50 50 50 50 50 51 52 53 54 53 55 55 55 56 58 57 56 57 56 56 57 57 55 55 51 47 49 48 47 46 45 50 52 53 54 55 53 54 53 53 50
48 50 50 49 48 49 50 50 51 52 53 54 55 54 54 54 55 55 55 55 54 54 54 54 52 49 51 51 52 52 51 51 49 52 50 45 47 47 49 51 46 42 44
49 50 50 48 47 48 49 50 50 52 53 53 53 52 52 52 52 52 52 51 52 52 53 53 51 52 52 52 53 52 51 51 53 50 45 42 43 43 46 47 46 47 43
50 50 49 47 47 47 49 49 50 51 52 52 52 52 51 50 49 49 48 48 49 49 50 51 51 52 52 52 51 53 53 53 50 46 42 41 41 43 44 43 42 41 41
50 50 50 47 46 47 49 48 49 50 51 52 51 50 50 49 46 48 48 48 48 47 48 48 50 50 50 50 50 53 53 50 46 44 41 39 39 41 43 41 41 39 41
50 50 50 46 46 48 48 47 48 48 49 50 50 50 49 46 43 44 46 45 45 46 46 45 46 47 47 47 47 48 48 50 47 43 40 42 42 40 40 40 38 37 35
50 50 49 47 46 48 46 46 46 46 47 49 49 49 49 48 42 41 41 42 42 43 43 41 40 41 45 45 45 45 44 43 45 48 47 45 44 43 43 40 39 38 38
50 50 49 46 45 47 47 46 45 45 46 46 47 48 48 47 41 39 38 39 38 37 37 37 41 41 41 43 42 41 40 41 42 41 48 48 46 44 44 43 41 39 38
50 50 50 46 45 47 46 45 44 44 44 44 44 45 47 47 41 39 37 36 35 35 34 34 34 37 38 36 40 40 38 35 36 39 38 37 35 38 39 37 36 36 35
49 50 51 47 46 47 47 46 46 45 44 42 43 44 44 47 41 39 38 36 37 35 41 41 39 33 36 35 37 37 35 36 31 30 34 37 39 40 39 42 37 34 33
49 51 51 49 47 47 48 47 47 45 45 44 43 44 44 44 44 41 40 45 43 42 41 41 42 39 36 36 33 37 35 33 32 30 28 30 33 37 39 39 39 36 33
49 51 52 50 47 46 47 48 48 46 45 44 44 42 42 44 41 39 40 41 44 46 44 43 43 39 39 37 37 34 30 29 27 27 25 26 28 30 33 37 40 38 37
49 51 52 52 50 48 46 47 47 48 45 45 44 43 41 41 43 39 38 39 40 44 44 41 39 37 37 39 37 36 33 28 26 24 25 27 26 29 35 35 38 40 40
47 50 52 52 51 50 46 46 47 48 47 46 45 45 44 46 45 44 41 40 39 42 42 41 40 39 37 39 38 38 37 33 30 28 28 27 27 31 30 33 33 36 36
46 48 50 52 52 52 50 47 46 48 46 46 46 45 46 46 45 44 45 43 39 38 40 39 38 43 44 44 37 36 35 35 36 35 34 32 30 29 31 35 36 36 35
45 46 48 49 52 52 52 51 44 42 42 40 39 45 47 43 41 40 41 40 37 36 40 41 41 42 43 43 41 38 35 34 34 33 35 36 35 34 34 37 35 37 36
45 46 46 47 49 51 52 52 51 50 43 41 40 39 40 43 40 39 39 39 36 36 45 44 44 45 45 44 42 43 41 39 37 36 36 34 35 37 37 36 35 35 34
48 42 46 46 47 49 51 51 51 50 50 51 43 42 40 39 40 38 38 40 41 40 46 47 48 49 47 45 43 41 38 37 35 34 34 35 35 35 35 33 32 33 34
46 50 48 46 46 47 49 50 50 50 50 50 46 43 40 38 38 38 40 51 50 48 47 48 47 47 47 45 43 41 36 32 30 31 32 32 32 33 33 31 31 31 33
46 43 46 50 46 47 47 48 49 50 52 54 52 48 46 47 49 47 50 51 50 50 49 48 48 45 41 36 34 31 30 33 31 32 33 33 33 32 31 32 32 34 36
43 43 42 46 47 46 48 48 51 53 51 48 46 43 38 48 46 44 43 42 41 40 39 35 32 32 33 33 33 34 34 35 36 37 37 35 35 36 38 39 38 39 38
46 47 47 49 53 53 53 52 50 47 44 42 43 41 36 42 43 44 42 41 41 40 39 38 33 32 33 34 35 37 35 35 36 37 38 38 39 39 39 39 39 39 39
53 53 53 52 51 46 49 49 47 45 44 45 45 45 45 45 44 43 41 41 40 39 38 37 35 34 34 35 35 35 34 34 37 38 38 38 38 39 39 40 39 38 37
53 52 52 52 51 50 49 47 47 44 46 46 45 44 43 42 41 38 34 33 34 34 35 35 35 35 35 35 35 35 34 35 36 36 37 38 37 37 38 38 38 37 37
54 52 51 51 51 50 49 48 48 46 44 43 42 39 35 33 33 34 35 35 35 35 35 35 35 36 36 35 35 34 32 31 34 33 36 36 36 37 37 38 37 36 36
53 53 52 51 50 49 47 44 43 42 40 38 37 37 37 35 35 35 35 36 36 36 36 37 37 37 36 35 34 32 31 31 34 31 34 34 34 33 33 34 35 35 35

GFSGL_sfc_dewp_006.txt.gz
Dewpoint
51 52 54 53 54 56 57 58 59 59 59 61 61 61 62 63 63 65 64 62 62 62 63 61 61 61 60 60 55 55 54 50 50 49 50 56 56 52 51 53 54 49 49
48 50 53 52 54 55 56 57 59 60 59 60 62 61 61 61 62 62 63 62 62 62 63 62 60 61 62 61 57 59 54 53 51 51 53 53 55 58 56 58 53 50 51
44 48 52 53 54 55 57 58 55 58 58 59 59 60 60 60 60 60 61 61 61 61 61 61 62 62 61 59 58 54 51 47 50 46 48 50 54 55 57 57 56 54 50
44 45 50 53 53 55 56 56 54 52 54 56 57 57 59 58 56 59 61 62 61 61 61 61 60 60 61 61 58 55 51 49 50 48 49 50 50 54 53 51 51 50 47
44 45 48 53 52 53 53 55 56 54 51 50 52 52 54 54 52 57 57 58 59 59 59 57 59 57 54 55 49 54 57 50 49 47 46 48 48 50 52 51 50 50 51
46 46 46 47 50 52 54 56 56 55 52 52 51 51 52 48 46 50 55 55 55 56 56 55 53 52 50 50 51 51 55 56 55 48 48 49 54 52 52 51 51 50 48
46 46 46 45 47 51 50 52 55 57 58 55 53 53 55 53 43 46 51 57 57 57 57 57 50 48 53 52 47 47 47 46 50 58 56 54 55 57 56 56 55 52 51
45 46 46 42 43 48 50 53 57 59 59 57 56 55 55 50 42 43 48 57 57 57 57 57 55 55 53 52 51 52 51 52 55 51 58 58 59 58 59 57 57 57 54
43 44 45 41 43 47 49 54 57 58 58 57 55 56 55 54 41 40 46 52 52 52 49 49 50 49 41 41 45 48 49 50 35 38 40 38 37 38 45 53 49 48 46
41 43 44 42 44 46 50 54 56 56 54 49 52 54 51 53 41 39 44 38 48 42 44 44 36 38 37 38 48 48 46 47 45 41 45 43 41 44 39 50 44 42 41
41 41 45 46 46 50 53 55 55 54 50 52 50 53 52 51 52 39 38 40 36 33 30 34 28 34 37 36 37 48 47 46 43 43 42 41 42 43 42 43 46 42 36
42 41 45 49 43 47 54 54 54 53 52 52 50 49 47 52 47 40 38 37 44 40 39 39 42 32 34 36 34 35 37 35 39 40 40 39 39 38 39 41 47 46 44
44 44 47 50 46 48 53 53 49 53 45 45 43 42 41 44 48 42 39 37 39 49 48 46 41 37 35 34 35 36 36 41 41 42 43 43 43 43 46 46 47 46 46
46 47 49 50 48 47 48 49 45 46 44 41 39 40 40 40 42 46 45 45 42 44 45 47 46 43 42 43 43 42 43 44 45 47 46 45 44 44 45 44 43 43 42
49 48 50 48 51 48 47 45 43 51 43 41 41 39 41 41 40 40 42 44 46 43 46 48 47 46 45 46 47 47 48 49 48 48 47 48 48 45 44 43 42 40 40
52 48 47 45 48 45 44 43 41 40 41 40 41 42 41 40 40 40 40 40 39 38 43 46 47 47 47 49 52 53 53 49 50 47 46 43 40 38 37 37 37 37 37
54 51 46 44 44 42 42 41 41 43 40 40 39 39 40 43 39 39 39 38 36 38 46 50 49 50 51 53 53 52 48 45 43 39 38 38 38 37 36 36 35 35 35
55 44 47 46 42 42 42 41 39 37 41 43 41 41 38 39 38 37 37 39 42 43 49 49 50 53 52 49 45 40 39 38 37 37 37 40 40 38 37 36 35 36 36
51 46 48 43 43 42 42 42 39 38 37 35 50 45 40 37 37 37 37 49 50 50 49 52 52 50 43 41 39 40 40 40 41 42 43 42 40 39 37 36 36 34 35
50 45 45 44 43 43 43 42 42 41 41 41 49 50 48 47 50 51 53 54 54 52 51 46 40 39 38 37 39 43 44 43 44 41 38 37 37 37 38 37 37 37 37
47 48 43 46 44 44 44 43 43 42 42 43 44 50 43 52 52 53 52 52 48 44 38 35 37 42 46 44 45 44 41 37 36 36 36 37 38 38 40 40 39 39 38
46 46 47 45 45 45 45 45 44 44 44 46 52 50 39 51 50 45 41 38 39 43 45 44 44 44 42 40 37 34 33 34 36 36 37 37 38 39 38 38 37 37 37
46 46 47 50 50 48 52 48 46 46 50 51 50 48 46 44 43 43 44 45 45 45 43 40 37 36 36 36 36 35 34 35 37 37 35 35 35 37 36 39 35 35 36
45 47 47 48 46 47 49 50 48 47 50 48 47 46 46 46 46 46 45 43 39 38 38 38 36 36 37 36 36 35 36 37 35 35 35 33 31 33 33 34 34 34 37
43 47 48 49 49 49 50 52 51 49 47 48 48 47 46 46 42 40 40 41 42 41 36 35 35 36 36 35 35 36 33 32 34 32 33 32 32 33 31 32 33 36 35
49 52 51 52 52 51 52 51 50 49 49 48 46 42 40 40 40 40 40 38 35 34 33 33 34 34 35 35 35 32 32 32 36 32 36 32 30 28 29 31 30 32 32

GFSGL_sfc_dewp_009.txt.gz
Dewpoint
52 53 54 54 57 58 59 60 61 63 62 62 61 62 63 64 65 66 65 64 63 63 62 61 60 59 59 58 58 58 57 58 55 58 56 60 62 59 56 59 54 50 49
49 51 52 53 55 58 59 60 62 61 62 62 62 62 61 62 64 63 62 62 62 62 62 61 59 60 59 59 56 57 59 59 55 56 58 58 58 60 57 61 54 47 50
44 50 53 53 55 57 58 59 60 60 61 61 61 61 61 61 62 63 62 62 63 63 62 61 60 60 60 59 58 59 59 58 57 54 54 55 55 56 57 60 60 61 53
43 46 52 52 54 56 56 56 56 57 59 60 61 61 60 59 61 62 61 63 63 62 62 62 62 62 62 64 62 61 58 57 58 53 51 53 54 58 57 54 55 54 53
42 44 52 52 52 55 55 55 53 53 53 54 57 59 57 58 62 62 62 63 63 63 64 62 63 61 58 60 59 60 61 55 50 49 48 49 50 53 54 54 53 54 57
43 43 48 49 49 52 55 55 55 52 51 52 52 54 57 52 48 51 58 60 60 60 57 58 57 55 52 50 51 51 58 62 59 48 48 50 59 57 54 53 53 52 50
44 43 43 48 48 50 51 52 53 56 56 55 54 55 56 56 46 48 52 58 59 60 60 59 51 48 52 54 51 50 50 49 51 59 57 57 60 60 61 61 60 57 55
43 43 41 42 47 49 50 52 57 58 58 57 54 55 56 49 44 47 51 60 61 59 58 56 58 57 54 53 52 52 53 54 57 53 60 61 61 62 64 62 63 62 59
41 43 41 38 44 48 50 55 58 59 60 57 55 54 55 53 42 42 48 58 56 56 54 54 55 55 44 44 51 51 52 53 39 42 41 40 38 38 44 55 52 51 51
41 42 42 38 43 47 53 57 58 58 57 52 53 54 52 55 41 40 46 43 52 48 50 49 41 46 39 40 51 51 50 51 48 44 48 49 43 48 41 49 49 44 45
39 41 43 43 46 52 58 59 58 56 55 54 52 55 53 53 52 40 39 48 40 37 34 36 35 39 37 36 37 53 50 48 47 48 46 46 49 51 46 50 50 43 40
40 40 43 46 44 46 57 57 55 57 56 55 54 52 49 53 49 40 39 38 44 42 40 39 41 36 36 36 35 36 37 39 40 41 43 45 45 45 46 48 54 51 50
42 42 45 47 45 49 54 55 51 56 48 49 46 44 42 47 52 42 39 38 39 50 49 42 35 33 34 33 34 35 37 41 43 44 46 49 49 49 53 53 56 53 52
44 47 48 48 46 50 49 51 47 48 45 41 40 41 40 44 46 48 45 45 40 44 46 49 47 44 42 44 44 40 42 44 46 48 50 50 50 50 51 49 48 47 45
51 49 51 47 50 50 50 47 44 51 44 42 42 40 44 43 43 45 42 44 46 44 48 48 48 48 46 47 48 48 49 50 51 53 52 49 48 44 41 42 41 42 43
52 48 46 45 48 43 45 45 41 41 39 40 41 41 40 39 38 39 39 40 40 39 44 48 48 48 48 48 49 52 54 51 50 47 43 41 39 39 40 42 42 41 38
53 52 45 44 44 42 42 41 42 44 41 41 39 40 41 40 39 39 39 38 37 40 45 47 48 49 49 52 52 52 46 42 43 41 40 39 42 42 42 40 38 36 35
55 44 48 46 43 43 42 41 38 40 43 45 41 43 40 39 38 38 37 39 43 42 47 48 50 51 53 52 47 43 41 41 41 42 44 45 45 40 37 35 35 36 36
53 48 48 46 43 43 41 41 37 37 39 40 44 43 40 37 37 37 38 44 45 48 48 50 53 52 48 44 43 42 42 43 44 45 43 42 37 35 35 36 35 34 36
52 47 46 47 45 43 43 39 40 40 41 39 41 43 46 43 45 45 45 47 50 50 51 52 50 46 44 42 43 45 46 44 42 36 35 36 37 36 36 37 37 36 36
48 50 45 47 43 43 42 42 42 40 38 37 44 44 42 46 48 48 49 52 54 53 48 44 41 40 44 47 44 40 38 34 34 35 35 36 38 38 39 38 36 35 33
48 48 49 48 47 44 44 43 44 43 43 39 45 47 39 49 50 53 53 53 51 45 42 45 45 44 41 40 37 35 33 33 35 36 36 36 37 37 36 36 34 34 34
46 47 48 50 49 47 47 44 45 47 45 47 52 50 50 51 52 49 45 45 44 46 46 43 38 36 36 38 37 34 32 33 35 36 34 34 33 34 33 39 33 33 33
46 47 47 49 50 50 50 50 49 44 46 51 53 52 51 49 46 44 45 46 45 41 38 36 36 36 36 35 36 35 36 37 34 34 34 32 31 32 33 31 32 32 35
46 50 50 50 50 52 50 50 52 47 49 52 52 49 46 46 47 47 45 40 39 39 38 36 36 36 35 35 35 35 33 32 34 32 34 31 31 31 28 30 30 33 33
45 47 48 48 50 50 50 51 51 52 51 50 50 49 49 48 45 41 41 39 37 35 35 36 36 36 36 35 35 32 32 32 36 32 36 33 28 26 26 26 25 27 28

GFSGL_sfc_dewp_015.txt.gz
Dewpoint
54 53 56 57 59 61 60 61 60 61 61 62 62 62 61 62 62 62 61 60 59 59 59 60 60 60 60 60 61 61 60 60 58 59 61 62 62 62 62 62 60 58 58
53 52 55 58 59 60 60 60 60 60 61 61 62 62 62 62 61 61 61 61 60 58 58 59 59 60 60 60 61 60 59 59 59 58 60 60 60 60 61 57 57 56 56
53 51 55 57 57 59 60 59 60 60 60 61 62 62 62 62 62 62 61 61 60 60 59 59 59 59 59 60 60 59 59 61 59 57 57 57 56 55 56 56 52 49 49
52 50 55 56 56 57 58 60 60 61 60 60 61 62 61 62 62 62 62 61 60 60 60 60 59 59 59 59 60 58 57 57 57 57 55 53 53 52 51 51 55 56 56
52 50 53 55 57 57 57 58 60 60 60 60 60 61 62 62 63 62 62 62 61 60 60 60 60 60 59 59 59 57 57 56 55 55 54 53 52 53 50 52 54 54 55
51 51 53 53 55 57 55 54 57 58 58 57 57 55 57 60 52 56 60 61 61 60 60 60 59 59 57 56 56 55 57 55 53 53 53 53 53 54 54 55 54 52 52
51 52 51 52 55 56 55 55 55 57 55 56 56 54 51 51 51 53 56 62 62 61 60 59 59 60 57 57 50 49 50 50 52 52 52 52 52 54 54 52 52 53 53
48 50 50 51 53 54 55 55 56 57 56 55 55 53 50 46 46 50 53 58 58 58 59 58 58 57 55 53 52 53 53 53 54 58 56 55 55 55 56 56 55 54 54
45 46 48 49 51 53 55 55 57 57 56 55 54 52 50 46 46 50 57 58 57 57 55 54 55 53 47 49 53 51 52 47 43 44 45 42 41 44 49 53 52 49 47
43 43 46 49 50 51 56 56 57 57 57 57 54 52 50 47 42 43 54 57 54 50 46 50 50 47 42 48 52 52 50 48 42 41 41 38 37 38 42 44 48 42 42
43 43 43 49 50 53 57 58 58 58 56 55 55 54 51 48 44 40 42 53 52 50 46 43 46 40 42 45 50 52 50 47 45 48 48 49 50 50 46 48 46 43 43
43 44 42 49 50 56 57 58 58 58 56 56 55 54 55 51 45 40 39 42 43 48 46 43 38 37 38 38 37 37 39 42 43 44 46 50 48 50 51 50 49 49 48
44 45 45 47 49 57 56 57 57 57 57 54 55 52 55 55 49 40 38 43 44 50 44 42 36 36 37 36 36 36 39 42 44 48 51 47 43 43 44 44 44 44 43
45 48 47 45 51 55 56 56 55 55 55 51 51 51 51 53 49 41 39 43 42 39 40 37 35 33 33 35 28 28 35 43 47 50 46 45 44 42 41 42 40 40 40
48 49 45 44 51 53 55 55 54 54 53 52 50 49 49 51 51 42 41 42 46 43 43 40 41 36 40 44 46 40 44 47 51 49 44 42 41 40 40 39 39 39 38
49 49 46 45 51 51 52 53 43 45 45 44 44 47 48 46 44 40 40 41 43 44 49 48 47 47 46 46 47 49 50 50 44 42 42 41 40 39 38 39 39 38 37
48 49 48 45 49 50 51 51 50 43 41 39 40 40 44 43 42 39 39 39 40 40 44 48 49 50 50 51 50 46 44 43 43 42 42 41 40 37 37 37 37 37 37
51 45 48 48 45 49 50 50 50 47 43 43 41 40 39 39 40 38 37 39 41 42 44 45 47 51 53 50 44 43 43 43 43 43 42 41 39 37 36 37 37 36 37
50 49 47 48 47 45 49 49 49 46 45 44 44 40 37 37 37 37 38 40 41 42 45 46 49 52 48 44 43 43 43 43 44 43 43 40 38 38 37 38 36 33 33
49 45 46 47 48 47 46 47 46 47 46 45 44 43 40 40 41 40 42 46 44 44 44 48 48 46 44 44 43 43 43 42 43 40 38 39 39 39 37 36 35 35 35
50 48 44 48 46 48 47 45 45 44 46 45 46 44 38 42 42 42 42 46 46 46 50 48 46 43 44 44 43 42 42 42 39 40 40 39 39 38 38 37 36 34 34
51 50 48 48 49 46 46 48 46 44 42 44 45 44 36 42 42 42 42 43 46 51 49 46 45 45 45 42 41 41 37 37 39 39 39 39 38 37 38 35 34 35 35
51 52 50 48 48 45 48 50 49 48 44 41 44 43 41 42 44 44 45 47 50 47 46 46 45 43 42 41 39 37 37 37 38 39 39 39 37 35 37 34 35 33 32
51 52 51 49 48 49 48 48 51 46 46 45 44 43 44 46 44 46 49 49 47 47 47 44 41 40 38 37 38 39 39 39 38 37 37 37 34 33 35 32 32 32 32
49 52 53 52 50 49 50 53 55 54 53 51 48 44 46 47 48 50 49 48 46 44 41 39 38 38 38 37 35 35 33 33 36 36 38 35 33 31 29 28 30 29 27
51 52 53 55 53 52 52 53 55 55 53 53 50 50 50 48 48 48 46 42 40 39 38 38 38 38 38 37 36 33 32 32 33 33 37 33 28 26 24 26 24 25 24

GFSGL_sfc_dewp_021.txt.gz
Dewpoint
56 55 57 57 58 58 57 58 58 58 59 59 59 58 58 59 59 60 59 59 59 60 60 59 59 59 59 59 60 60 60 59 58 60 61 63 62 62 62 61 61 59 59
55 55 57 58 58 57 57 58 58 58 59 60 60 60 60 59 59 59 59 58 58 59 60 59 59 60 59 59 61 60 60 60 59 58 60 61 61 62 61 60 60 59 57
52 56 57 57 57 56 57 58 59 59 59 60 60 59 59 59 59 59 59 59 59 59 59 59 60 60 59 59 60 60 61 61 60 59 59 59 59 60 59 56 57 56 56
51 56 56 55 56 57 57 58 58 59 59 59 60 60 60 60 59 59 59 58 58 59 59 60 60 60 60 60 60 60 60 60 59 59 58 57 57 56 57 56 54 52 52
52 55 53 54 56 58 58 58 59 59 60 61 61 61 61 61 60 59 58 58 58 59 59 60 60 60 58 58 60 59 59 59 58 57 56 54 53 52 54 53 53 51 52
52 53 53 54 56 57 57 58 58 58 59 61 61 61 61 61 50 54 58 59 59 59 59 59 59 58 56 54 55 56 58 57 56 56 53 52 51 51 50 51 50 50 49
50 53 53 55 56 54 58 57 56 54 55 57 59 60 59 59 49 50 54 60 59 60 59 59 60 59 58 59 54 54 52 52 52 55 54 53 50 51 50 49 49 50 51
49 53 52 54 53 53 55 54 53 53 53 54 55 58 58 56 47 49 52 61 60 60 59 59 60 59 58 58 57 53 54 53 54 54 54 54 52 52 52 52 52 52 52
49 51 50 54 54 54 54 53 52 52 52 52 53 55 56 54 46 48 56 60 59 59 59 59 59 58 49 49 53 51 51 49 45 48 46 45 45 49 52 55 52 51 47
49 50 50 53 54 53 54 53 52 51 52 52 52 53 51 53 45 47 55 58 57 57 57 57 52 55 46 45 52 50 50 47 48 46 42 40 41 43 45 49 51 43 40
49 49 49 52 53 53 54 54 52 52 52 51 50 50 50 51 50 46 49 57 55 55 55 54 54 45 43 43 47 49 48 45 42 44 46 47 46 45 44 44 43 43 43
48 48 48 50 52 54 54 54 54 52 51 50 50 49 48 45 44 45 45 47 48 54 54 53 48 41 42 42 47 44 40 44 47 48 48 48 48 47 47 45 44 43 43
47 47 47 49 50 54 53 54 54 52 51 50 50 50 50 47 42 41 43 43 44 49 51 47 39 38 40 41 40 40 41 46 48 47 46 45 46 46 43 41 41 41 41
44 46 47 48 50 54 53 54 54 54 52 52 51 49 50 49 45 39 43 45 45 45 42 40 38 37 38 38 39 40 42 48 47 45 43 42 41 40 40 40 39 39 37
43 43 45 47 49 53 54 54 54 55 54 54 53 52 51 50 48 41 40 43 46 44 37 33 32 33 31 29 30 37 45 47 44 43 41 39 38 38 38 39 38 37 36
43 42 43 47 50 52 54 52 42 46 45 45 46 50 52 48 44 40 38 39 38 35 34 30 29 32 33 30 32 35 43 47 44 41 40 38 37 38 38 37 37 36 35
43 43 43 45 49 52 53 53 53 48 43 43 42 44 44 47 42 40 37 37 36 35 36 32 29 29 32 34 39 43 44 46 43 41 39 38 38 38 36 36 37 36 34
44 43 44 44 48 51 52 52 52 52 51 51 42 43 41 40 41 40 37 39 38 39 40 35 32 30 33 35 42 45 45 43 42 40 39 38 38 37 36 36 36 35 34
46 46 44 44 47 49 51 52 52 51 51 50 44 40 37 37 38 38 37 42 41 38 42 41 38 38 40 39 43 46 46 43 41 40 39 39 39 38 37 37 35 33 33
47 43 43 45 47 48 50 50 51 51 50 50 48 48 39 39 42 41 40 42 39 41 44 45 45 47 47 47 46 46 45 41 41 40 39 40 40 39 38 36 35 34 34
48 47 42 46 47 48 49 49 50 50 49 49 48 47 38 43 43 42 42 43 43 38 38 44 46 47 50 48 46 45 43 42 41 40 40 40 40 38 36 36 36 35 34
48 48 47 47 46 48 48 49 49 49 49 49 48 46 36 43 44 42 43 44 45 41 37 40 42 46 47 47 46 45 44 42 41 41 40 40 39 37 37 36 35 35 34
49 49 49 49 48 44 46 49 49 49 49 48 48 47 40 42 44 43 43 44 45 45 42 41 43 46 47 46 46 45 44 42 42 41 40 39 38 38 38 38 36 34 33
49 49 49 49 49 49 47 47 48 45 48 48 48 47 45 45 46 45 44 44 44 45 45 45 45 44 46 46 46 45 45 43 43 43 43 42 41 39 39 38 34 33 32
51 51 50 50 49 48 49 49 50 48 47 47 47 47 47 47 47 47 49 46 47 47 48 47 46 46 46 45 43 43 39 38 43 41 44 43 42 40 38 35 33 31 29
52 53 52 50 50 50 49 48 49 51 50 48 47 46 46 47 47 50 49 50 48 49 48 47 46 45 43 42 42 38 36 37 39 39 43 43 41 39 37 32 29 28 28

GFSGL_sfc_dewp_024.txt.gz
Dewpoint
56 56 57 59 58 58 59 59 59 59 60 60 59 59 59 59 60 60 60 60 60 60 60 59 60 61 61 61 62 62 60 60 58 60 61 62 62 62 62 61 61 60 59
56 56 58 59 58 57 59 59 59 59 60 60 60 60 59 59 60 59 59 59 59 59 60 60 60 60 60 61 61 61 60 61 60 58 60 61 61 61 61 61 61 61 60
54 56 57 58 58 57 59 59 60 60 60 60 60 60 59 59 59 59 59 59 60 60 60 60 60 61 60 61 61 61 61 61 61 60 59 61 61 61 59 59 59 59 58
54 56 57 57 58 57 59 59 60 60 60 60 60 60 59 59 59 58 59 59 60 60 60 61 61 60 59 60 61 61 61 60 60 59 59 59 59 59 59 56 55 58 56
54 55 55 56 57 58 59 59 59 60 60 60 61 61 60 59 59 58 58 59 59 59 60 61 61 60 58 59 61 60 60 59 59 58 57 57 55 58 58 57 56 55 55
54 54 54 56 57 58 58 59 59 60 61 61 61 61 61 60 50 53 57 59 59 59 59 59 59 57 55 54 54 55 57 58 57 57 55 56 55 56 55 56 54 53 52
53 54 54 56 56 58 58 57 57 56 59 60 60 61 60 57 48 49 53 59 59 59 59 60 60 59 58 58 53 53 53 53 55 58 57 57 55 55 55 53 53 53 54
52 53 54 56 54 57 56 55 54 55 57 58 59 59 59 55 47 48 52 60 60 60 60 60 60 59 58 59 58 56 55 56 57 56 59 57 57 55 56 55 55 54 51
50 53 53 55 54 55 55 53 54 55 55 55 57 58 58 54 46 48 56 60 59 59 60 60 60 59 48 50 56 55 53 52 46 45 47 47 46 47 52 55 55 54 50
50 52 52 54 54 55 54 53 53 54 54 55 56 57 54 56 45 47 56 59 59 59 59 58 52 57 45 47 55 54 54 52 49 48 49 47 49 48 48 57 55 52 44
50 51 52 55 54 55 54 54 53 54 53 54 53 53 56 56 52 46 50 58 58 58 57 57 57 46 45 45 47 53 52 49 46 47 46 47 47 48 47 47 49 47 46
50 50 51 54 54 55 55 54 53 53 53 52 52 51 50 52 48 45 47 50 52 58 57 56 54 43 43 43 47 44 40 44 48 48 47 46 47 46 45 45 46 45 44
50 50 50 53 54 55 54 54 52 52 52 52 51 51 50 47 48 44 44 44 48 56 56 52 42 40 41 44 43 40 42 49 49 49 48 47 48 44 44 43 43 43 42
49 50 50 51 53 54 55 54 53 52 52 51 51 51 51 49 46 46 48 48 45 47 44 43 41 42 42 44 43 43 47 49 49 49 48 47 44 42 41 40 38 36 33
49 49 49 50 52 53 54 55 55 54 51 52 52 52 52 51 49 43 46 49 50 45 43 41 40 41 42 41 42 44 47 49 47 46 46 43 41 41 40 41 38 38 32
47 47 48 48 50 53 53 52 42 48 46 44 45 50 52 47 43 39 38 39 40 36 41 41 42 42 41 40 40 42 47 48 46 45 44 43 41 40 39 39 38 34 31
46 46 47 48 49 51 53 53 52 49 44 43 43 43 45 47 42 40 37 37 37 37 44 40 42 42 42 40 39 39 43 48 46 44 43 42 41 40 38 38 37 33 32
46 42 46 48 49 50 52 53 52 52 52 53 44 45 42 41 41 40 36 38 39 38 42 41 40 40 40 40 39 39 43 47 44 43 42 41 41 39 38 37 36 33 33
45 44 45 47 49 50 52 52 52 52 52 53 48 42 41 39 39 37 37 47 43 41 41 42 41 39 37 38 41 42 44 46 45 43 42 42 41 39 38 37 35 34 34
46 43 44 46 48 50 51 51 52 52 52 52 50 51 43 41 45 45 43 46 46 45 42 41 43 41 39 37 39 43 45 45 44 44 42 41 41 40 38 37 36 34 34
46 46 41 46 47 49 50 50 52 51 51 51 50 50 41 47 49 48 45 45 46 46 44 43 43 44 44 43 42 43 44 46 45 44 42 41 41 39 40 38 36 35 35
47 47 46 46 47 48 49 50 51 50 50 50 50 49 37 46 49 48 47 47 47 48 45 45 46 46 46 47 46 45 44 44 45 44 42 41 41 40 38 36 36 37 37
48 48 47 47 48 45 47 50 50 50 50 50 50 49 43 46 48 48 47 47 47 47 47 44 44 45 47 49 49 48 46 45 45 44 43 41 40 39 39 39 38 37 38
49 49 48 48 48 48 48 49 50 46 49 50 50 49 47 47 48 48 48 47 47 47 47 46 43 43 45 48 48 48 48 48 47 45 44 43 41 40 41 40 39 38 37
50 50 50 50 49 49 48 49 50 50 49 49 50 50 50 49 48 48 50 49 47 47 47 47 46 44 45 47 48 48 44 38 44 41 44 43 42 41 40 40 39 37 35
50 51 50 50 50 50 50 49 49 51 50 49 50 50 50 49 49 50 50 50 48 47 47 47 48 48 48 48 47 41 36 36 39 39 44 43 42 41 40 39 37 36 34

GFSGL_sfc_dewp_027.txt.gz
Dewpoint
60 60 61 61 61 61 63 62 63 64 63 62 62 62 62 62 62 62 62 61 62 61 61 62 61 63 63 63 62 61 62 61 59 60 61 62 62 61 62 62 62 61 60
59 59 61 61 60 61 62 62 63 63 62 62 61 61 61 61 61 61 60 60 60 60 61 61 61 62 62 63 62 62 62 62 60 58 60 60 60 61 61 61 61 61 61
57 58 61 61 60 61 62 63 62 63 63 62 61 60 60 61 60 60 59 59 59 61 61 61 61 62 62 62 62 62 62 62 61 59 59 60 60 61 60 60 60 60 60
56 58 60 61 60 61 62 62 63 63 62 62 62 60 59 59 59 60 60 60 61 61 61 62 62 62 62 62 61 62 61 61 61 60 59 59 59 60 60 57 57 60 57
56 57 59 60 61 61 61 62 62 62 62 62 61 60 59 59 59 59 59 60 61 61 62 62 62 61 59 61 62 62 62 60 60 59 58 58 58 58 58 59 59 58 57
55 56 57 59 60 61 61 62 62 62 62 62 61 61 60 59 50 53 57 60 61 61 61 61 60 58 56 54 54 55 60 60 59 58 58 58 58 59 59 59 55 54 53
54 55 56 58 59 60 60 61 62 62 62 61 62 61 59 59 49 50 53 61 62 61 61 61 60 59 59 58 53 53 53 52 55 60 58 58 58 60 60 59 57 55 55
53 53 55 56 58 59 59 59 60 61 62 61 60 61 59 57 47 48 53 61 61 61 61 61 60 60 59 59 58 57 58 59 59 61 62 61 62 61 61 60 57 56 55
52 53 53 55 58 58 57 58 60 61 62 61 61 61 57 54 46 46 56 60 61 61 61 61 60 61 48 50 57 56 56 55 47 47 47 46 47 49 53 55 52 52 51
51 52 53 55 57 57 58 58 60 61 61 60 61 61 55 55 45 47 57 60 59 59 60 59 52 57 46 48 58 58 57 56 54 56 56 52 53 52 51 60 57 54 52
51 52 53 57 56 59 58 59 60 60 60 60 60 61 61 58 53 46 51 60 59 60 59 59 59 45 45 46 50 59 56 55 52 55 55 55 56 56 55 57 59 55 50
52 51 53 57 54 56 58 58 59 60 60 60 59 59 60 61 51 46 48 53 55 59 58 59 58 44 44 44 49 41 43 48 52 52 50 49 50 49 50 51 53 52 53
52 53 54 57 55 57 57 57 57 59 57 56 53 54 56 57 57 45 45 46 50 58 58 53 44 42 41 45 40 40 45 52 52 50 47 47 47 48 49 48 48 47 45
53 53 54 55 56 57 55 54 53 55 54 53 51 51 52 54 57 57 55 55 48 54 48 51 47 47 45 48 48 45 51 51 51 49 48 49 47 46 44 43 42 40 36
54 53 53 53 56 57 56 54 52 55 53 53 53 52 53 52 53 51 53 56 57 53 52 51 52 51 52 52 52 52 51 51 50 50 50 47 45 44 44 44 41 40 38
53 52 51 50 53 54 54 55 43 48 46 44 46 51 53 47 41 40 43 43 40 41 52 53 51 49 49 50 50 50 50 48 49 49 50 47 45 44 44 43 42 40 35
55 54 50 48 50 51 52 52 53 51 44 43 43 43 45 48 40 38 38 39 37 40 51 51 51 50 49 48 49 49 48 50 51 48 48 47 46 45 43 43 41 37 33
55 46 50 48 48 49 51 51 50 51 52 54 45 46 42 42 40 39 37 39 44 43 48 49 48 49 50 49 47 47 48 50 50 48 48 48 47 45 44 43 41 38 33
52 49 49 49 48 48 49 50 49 50 50 50 53 46 46 40 39 37 37 49 47 46 45 44 46 47 46 47 48 46 47 48 48 48 47 47 47 46 45 43 41 34 33
51 45 47 49 48 48 48 49 48 49 50 50 50 50 52 47 52 51 48 51 52 50 48 46 45 44 45 44 44 45 45 46 47 47 46 46 46 45 44 43 40 35 34
47 47 43 48 47 47 47 48 48 49 49 49 50 49 44 51 51 51 52 52 52 52 50 49 46 45 44 43 42 41 42 44 45 45 45 45 46 44 44 43 39 35 36
47 46 46 46 47 47 48 49 49 49 49 49 49 48 38 49 48 49 50 51 51 52 51 51 49 47 46 44 42 42 40 40 42 43 44 44 45 44 43 41 37 38 38
46 47 46 47 48 46 49 48 48 49 48 48 48 48 48 49 49 49 50 51 51 51 51 51 50 49 49 49 48 45 41 41 43 45 44 45 44 43 43 43 40 40 39
48 48 47 47 47 47 48 49 49 46 48 49 50 49 49 49 49 50 50 51 51 51 50 50 49 49 49 50 49 49 48 47 46 47 46 46 45 43 44 41 40 38 38
47 50 50 50 49 49 49 50 51 49 49 49 50 50 50 50 49 50 50 51 51 50 50 49 49 49 49 49 49 49 47 38 47 44 48 48 46 44 43 42 39 39 38
49 53 51 50 50 50 49 50 50 51 49 50 50 51 51 50 50 50 51 51 50 50 50 50 50 50 50 48 48 44 37 37 45 40 48 47 44 44 41 40 39 39 38

GFSGL_sfc_dewp_030.txt.gz
Dewpoint
59 60 60 61 61 62 64 62 63 64 61 60 60 61 61 61 62 63 63 62 61 63 63 62 63 64 61 60 62 65 62 64 59 60 61 61 61 61 62 62 63 62 60
57 58 59 61 61 63 62 61 63 62 61 59 59 60 59 60 61 61 59 59 60 61 61 61 61 63 63 64 66 63 62 61 60 57 60 60 60 61 61 61 61 61 61
54 56 60 61 61 62 62 62 63 62 61 59 59 60 60 60 60 60 60 60 60 61 61 62 62 62 62 62 64 63 63 62 61 59 58 60 60 61 60 60 60 61 61
53 55 58 60 61 61 62 62 62 61 61 59 60 60 60 60 60 60 60 60 60 61 62 62 62 62 63 62 64 62 63 60 60 59 58 58 59 60 60 58 57 59 59
52 54 58 60 61 61 61 61 62 62 61 61 61 61 60 60 59 60 60 60 61 61 62 61 63 61 59 61 64 64 62 60 59 58 58 58 58 58 58 59 58 58 58
52 53 57 58 59 61 62 61 62 62 61 61 61 60 60 58 51 53 58 60 61 61 62 62 62 60 58 53 54 56 60 60 59 58 58 57 58 59 59 59 57 55 53
51 52 56 58 58 60 60 61 62 62 62 63 62 61 60 60 49 51 53 61 61 62 62 62 62 61 60 60 53 53 53 52 56 59 58 59 59 60 60 59 57 56 54
50 50 55 56 56 59 60 61 63 63 62 61 61 60 60 59 49 49 52 62 62 62 62 62 62 61 60 59 60 60 60 59 61 61 60 61 61 63 63 59 61 61 58
49 49 53 54 56 57 57 60 63 65 63 63 62 60 57 59 47 47 55 61 60 61 62 61 61 60 47 51 58 58 57 56 49 50 52 52 51 52 59 58 56 54 52
48 48 50 53 55 56 57 61 63 64 62 62 61 60 54 57 44 46 55 60 60 61 61 60 52 55 47 51 60 59 59 60 60 58 57 54 55 54 51 61 57 53 52
47 48 49 55 56 57 59 62 63 61 61 61 61 62 59 57 53 47 51 60 60 60 60 61 58 45 46 49 53 60 58 59 56 59 58 58 57 57 57 60 59 56 54
47 48 49 56 53 56 58 62 62 62 61 61 62 62 61 61 53 47 49 54 55 59 59 59 56 43 45 45 51 45 45 52 55 54 54 53 53 54 56 58 60 58 56
48 50 51 54 55 55 57 60 60 62 58 57 57 58 60 61 60 47 46 47 50 58 58 51 44 42 42 44 42 44 46 53 53 53 53 53 53 53 55 54 54 52 52
50 52 52 53 55 57 53 54 55 57 55 49 49 56 58 58 59 59 59 59 50 56 50 55 52 49 46 47 47 49 54 54 54 54 51 49 49 51 48 48 47 47 44
52 52 53 51 54 56 55 51 49 56 51 48 47 47 53 56 57 54 56 58 59 55 57 57 57 55 54 54 53 52 52 53 52 51 49 48 47 47 47 48 47 46 43
52 52 51 48 52 51 54 54 43 46 46 46 47 47 48 44 45 45 45 45 44 46 55 56 56 54 51 51 52 52 52 51 50 50 49 47 46 45 46 47 46 46 45
53 53 49 46 48 48 49 52 52 51 47 44 44 45 45 45 42 42 41 40 40 45 56 56 54 51 48 48 48 49 49 50 51 49 49 49 47 46 45 46 46 46 44
53 45 49 47 46 46 46 47 47 49 50 51 44 46 43 42 39 39 39 43 49 48 49 47 48 48 46 45 45 46 47 49 50 50 49 50 49 46 45 45 45 46 43
51 48 48 47 45 44 46 45 44 44 44 46 48 47 44 40 38 37 39 51 48 48 48 46 47 46 47 47 47 46 47 47 49 50 50 50 50 47 46 45 45 40 39
52 44 45 47 45 45 45 45 44 44 45 44 45 48 52 49 51 51 49 50 48 45 43 43 43 45 46 45 45 46 46 48 49 50 50 50 49 47 45 45 45 43 40
50 49 44 45 45 44 44 45 44 44 44 45 44 44 42 51 47 49 51 52 51 48 47 45 42 42 44 44 45 44 44 45 47 48 48 48 48 46 47 46 46 43 39
49 48 48 44 45 45 43 43 44 44 44 44 45 44 38 50 44 43 45 47 49 50 49 48 46 44 42 42 42 43 42 42 44 45 46 45 46 47 46 45 45 43 38
47 47 48 46 45 44 46 42 43 44 44 44 44 43 48 49 47 45 45 46 47 49 49 48 47 46 45 44 43 42 40 40 41 43 44 44 44 45 45 47 44 41 39
46 47 47 46 45 45 46 46 44 41 43 43 44 44 45 49 49 49 47 48 49 50 50 50 49 47 47 46 45 45 44 42 40 40 44 44 44 44 46 45 44 42 43
46 48 48 48 47 47 47 48 48 46 45 45 45 45 45 47 49 50 49 49 49 51 51 51 51 50 50 48 47 47 45 37 46 41 45 47 46 47 45 46 45 45 42
46 48 49 49 49 48 48 48 49 49 48 48 48 48 48 48 48 50 51 51 50 50 52 51 51 52 51 50 49 43 37 36 47 38 48 48 47 47 46 47 45 41 38

GFSGL_sfc_dewp_033.txt.gz
Dewpoint
57 58 60 63 60 60 64 62 63 63 60 60 60 61 60 61 62 64 64 62 62 64 63 63 62 62 66 60 63 64 63 64 59 62 62 61 60 60 61 61 62 62 60
56 56 58 63 58 62 62 63 63 62 59 57 61 57 58 60 62 61 60 60 60 60 62 61 62 63 63 65 66 64 62 64 59 58 60 60 60 60 60 60 61 62 60
53 54 58 60 62 62 62 62 62 62 58 57 59 58 57 58 60 60 59 59 61 61 61 62 62 62 63 62 62 62 62 61 60 59 58 59 60 61 60 60 60 60 60
51 54 57 62 61 62 62 62 63 62 60 57 59 57 58 58 58 58 60 61 61 61 62 63 63 63 61 62 62 61 60 60 59 58 58 58 59 59 59 58 57 59 58
51 53 57 62 61 61 60 61 62 62 59 57 58 59 60 60 59 60 61 60 60 61 62 62 64 62 59 60 63 61 60 59 58 58 57 57 57 57 57 58 57 58 57
52 53 56 60 58 61 61 61 62 61 61 61 60 60 60 57 52 54 59 60 61 61 62 63 62 60 57 53 56 57 59 59 58 57 57 56 57 58 58 57 57 57 54
51 54 55 59 58 62 60 60 61 62 63 63 62 61 61 60 51 52 54 62 62 63 62 63 62 61 61 60 54 53 53 53 55 58 57 58 58 58 58 57 56 57 56
50 52 55 55 57 60 62 62 63 62 63 61 61 62 61 58 50 50 53 62 62 62 62 62 62 62 61 61 61 60 60 60 60 61 60 60 60 59 57 55 57 61 58
48 51 53 53 57 59 60 63 65 62 64 64 61 60 61 59 48 47 54 61 62 62 62 62 61 60 49 51 59 58 58 58 52 52 52 51 49 52 57 58 59 56 53
47 48 52 53 55 56 59 64 65 65 64 63 62 60 55 61 46 46 53 59 62 61 61 59 50 56 47 51 60 58 58 58 59 60 59 54 57 56 52 62 59 54 53
47 46 51 53 56 58 59 65 65 63 63 63 60 60 59 59 58 46 49 61 60 62 59 59 56 46 48 50 54 63 60 60 57 61 61 62 62 61 59 61 61 63 57
47 46 50 55 53 57 60 63 64 63 62 63 61 59 59 60 52 46 48 54 55 59 59 59 55 44 46 47 54 47 48 54 61 60 61 60 60 59 58 60 64 62 59
48 49 51 55 53 56 58 61 61 62 57 62 63 59 59 60 59 48 47 47 50 60 62 52 44 43 43 47 45 46 48 58 58 58 55 53 53 56 61 60 58 57 58
48 51 52 55 53 55 53 57 56 55 51 54 58 58 58 58 59 60 57 59 49 54 50 54 53 49 46 51 51 52 56 54 52 52 53 53 55 56 55 55 53 52 49
50 51 52 52 55 55 52 52 52 57 51 47 55 58 58 57 56 54 56 58 59 56 57 58 57 55 54 54 54 54 54 54 54 54 53 52 51 52 50 51 50 49 47
52 49 49 49 52 54 52 50 43 45 46 45 44 48 53 49 46 46 48 47 45 47 56 55 54 52 52 52 52 52 53 52 53 53 51 49 46 46 47 48 49 48 47
55 54 48 46 50 50 53 52 48 51 46 46 43 44 45 49 45 43 43 42 44 48 56 57 53 51 48 48 48 49 50 51 54 50 49 49 46 46 46 47 47 47 47
55 45 50 46 46 46 50 52 50 49 48 50 46 48 44 43 42 41 41 46 55 52 55 54 52 51 49 47 46 48 48 50 50 50 50 51 51 47 46 46 46 47 47
52 48 49 47 44 44 45 47 48 48 47 44 47 47 43 39 39 39 40 51 52 54 55 53 50 50 49 46 47 47 50 50 50 52 52 52 52 50 49 46 45 41 44
51 44 45 46 44 44 43 43 43 43 45 44 44 47 50 48 51 52 52 52 46 44 44 44 44 46 47 46 46 46 44 50 51 53 52 52 52 51 48 47 46 45 46
48 48 43 45 44 43 42 43 42 41 42 42 43 44 42 49 47 48 50 51 50 47 45 44 42 43 45 47 47 47 47 48 50 50 51 52 52 50 52 50 48 47 46
48 48 47 45 44 42 42 42 43 41 41 41 42 41 38 48 44 44 46 48 48 49 46 48 44 43 43 43 45 47 45 45 48 50 50 50 50 51 50 49 47 48 46
47 48 48 48 45 43 45 41 41 42 41 41 41 41 46 48 46 44 45 48 51 52 52 52 49 46 46 47 47 46 44 45 46 48 49 49 49 49 50 51 47 47 46
49 48 48 49 46 45 44 46 41 39 41 41 43 42 45 48 48 48 46 46 47 48 50 50 50 48 49 50 48 46 46 46 46 45 47 48 48 47 48 46 46 46 48
48 50 50 52 49 48 46 46 47 40 41 41 43 43 42 47 48 49 50 49 49 49 50 50 51 50 50 49 48 47 44 34 45 39 43 47 48 49 46 45 47 50 48
48 49 49 50 51 49 48 48 49 49 44 45 45 46 45 45 44 49 51 51 50 49 50 52 53 53 52 51 51 45 36 35 44 36 46 48 46 46 46 48 47 49 46

GFSGL_sfc_dewp_036.txt.gz
Dewpoint
62 63 64 64 62 65 66 65 65 66 63 63 63 63 62 62 63 64 63 63 62 62 61 62 62 61 62 63 63 61 61 61 57 60 61 61 60 60 61 61 62 61 60
60 60 63 62 64 65 65 65 65 64 62 61 61 60 62 62 63 63 62 62 61 62 62 61 61 62 60 62 62 61 61 61 58 57 59 59 59 60 61 61 61 61 60
56 59 62 64 64 64 64 64 64 64 62 60 60 60 61 62 62 62 61 62 62 62 62 61 61 61 61 61 61 61 61 61 59 58 57 59 59 60 59 59 59 59 59
55 58 63 64 64 64 64 65 64 63 62 60 59 60 59 60 60 61 63 62 62 61 62 62 62 62 61 61 60 60 60 60 59 58 57 58 58 59 58 57 56 58 57
54 59 63 64 63 63 63 63 63 64 62 60 61 61 62 61 59 62 62 61 62 62 63 63 62 60 60 60 61 60 59 59 58 57 57 57 57 57 56 57 55 56 55
55 59 62 61 62 63 62 64 64 63 62 61 61 61 62 59 52 54 59 61 61 62 62 62 61 59 57 55 56 55 57 58 57 57 56 56 56 57 57 55 55 54 53
54 58 60 60 61 62 62 62 63 64 64 62 62 61 61 59 52 52 53 63 63 63 62 63 61 60 60 58 52 53 53 53 55 57 57 57 57 57 57 56 55 55 53
53 55 57 58 60 61 63 63 64 64 63 62 62 62 60 57 50 49 50 63 63 62 62 62 62 62 60 60 59 59 59 59 59 59 59 59 59 59 58 57 56 58 56
51 54 56 58 60 61 62 64 63 63 63 62 61 61 60 59 47 47 53 63 62 62 62 61 61 59 50 51 59 58 58 57 52 51 51 50 48 50 54 55 57 54 52
49 53 53 58 60 61 64 64 65 65 64 61 60 60 56 59 47 46 52 62 61 60 59 57 51 55 49 51 59 58 57 58 59 58 56 52 52 52 49 57 57 53 52
48 52 54 58 61 62 64 65 65 64 63 62 60 60 61 60 56 46 48 62 61 59 58 57 55 47 50 51 53 59 58 59 56 59 60 60 59 59 57 58 61 59 53
48 50 55 60 57 60 64 64 64 64 63 60 59 59 60 61 53 49 49 55 56 59 58 57 50 46 48 52 54 47 48 54 59 60 60 60 60 59 59 60 61 60 59
50 53 57 58 59 61 63 64 62 63 61 60 59 58 59 60 59 48 48 48 53 60 60 50 43 44 45 48 47 47 50 59 59 59 59 59 59 60 61 59 58 57 56
53 55 58 57 58 59 61 62 60 61 62 60 58 58 59 59 59 59 59 56 50 53 50 52 50 50 49 52 52 53 60 60 59 59 59 59 59 59 59 58 55 54 52
55 55 58 56 58 58 59 58 59 53 57 61 59 58 59 59 59 56 57 59 59 56 57 57 57 57 56 56 58 58 58 57 57 57 56 56 57 57 57 57 55 53 50
55 54 54 55 56 54 55 54 43 44 43 42 49 56 58 52 48 48 48 47 48 47 57 57 56 55 54 54 55 55 57 55 57 56 55 54 53 53 53 53 52 51 50
55 55 52 53 55 54 53 52 53 50 44 44 43 46 50 49 45 45 45 43 45 48 57 56 55 55 54 55 54 54 55 56 57 55 54 53 52 51 48 50 50 50 50
55 47 53 51 53 54 55 52 50 53 53 54 48 49 45 44 44 43 43 48 53 52 57 57 56 54 53 53 53 53 53 55 54 55 55 54 53 50 50 50 49 50 50
53 52 52 50 51 49 54 54 51 50 50 53 53 49 42 41 41 41 44 58 57 56 56 56 57 56 54 53 52 52 53 52 53 53 55 55 54 52 51 49 49 43 45
54 48 49 51 48 49 49 50 51 52 50 46 52 52 50 48 53 54 55 58 57 57 56 56 56 56 56 53 53 52 52 53 55 55 53 54 55 53 50 50 49 48 48
52 52 45 51 47 47 46 47 47 48 50 47 46 49 45 52 52 52 52 53 51 48 51 53 53 49 51 53 51 50 49 51 53 53 54 53 53 52 53 53 52 50 49
49 50 49 47 48 46 46 47 46 45 45 47 47 46 40 51 51 51 52 52 52 52 51 52 47 46 45 46 50 50 49 48 50 51 52 53 53 53 53 53 52 51 50
49 49 49 48 48 46 48 45 46 46 44 44 44 46 46 48 47 47 49 51 53 53 53 52 51 49 48 48 47 47 47 48 49 52 52 51 51 52 52 53 52 51 50
48 50 50 49 48 47 48 47 46 43 44 44 45 47 47 49 50 48 47 48 49 50 50 50 49 48 50 53 52 50 47 48 50 50 51 52 51 48 51 52 52 50 51
49 51 52 52 49 48 49 49 48 45 44 44 45 46 49 49 50 50 51 49 48 48 51 52 52 52 52 51 52 52 47 35 46 42 51 51 51 52 50 49 50 51 47
50 53 52 53 52 51 49 51 49 48 45 44 45 47 46 49 49 50 51 50 48 48 49 49 50 52 52 51 51 46 38 35 40 36 48 49 49 50 48 49 49 50 44

GFSGL_sfc_dewp_042.txt.gz
Dewpoint
59 58 58 59 60 60 61 61 60 59 60 60 60 60 59 60 60 59 59 59 58 59 59 58 58 59 59 59 58 59 57 57 56 58 60 61 60 60 58 58 58 58 58
58 59 59 60 60 60 60 60 59 59 59 60 61 60 60 60 60 59 60 60 59 60 59 59 57 60 59 59 58 57 57 57 57 57 59 59 58 59 58 57 58 58 57
58 59 60 60 60 60 60 61 60 60 59 60 59 59 60 60 60 60 60 60 60 59 60 60 59 60 59 59 58 58 58 59 58 58 57 59 58 59 58 58 58 58 59
59 59 59 59 59 60 60 60 60 60 60 58 59 60 60 60 61 61 60 59 59 60 61 60 60 60 59 59 59 59 59 59 57 57 57 57 57 59 58 57 56 58 56
58 59 59 60 60 60 60 60 60 59 60 60 60 59 59 60 60 59 59 59 60 60 61 61 61 60 59 59 60 60 59 59 57 57 57 57 56 56 56 56 55 55 54
59 59 60 59 60 59 59 60 59 59 59 59 59 58 57 57 49 52 57 60 59 59 60 59 60 58 56 54 55 56 58 58 57 57 56 55 56 56 56 56 55 54 51
59 60 60 60 60 59 60 60 59 58 58 58 57 57 55 54 47 48 52 60 58 58 58 60 60 58 57 56 52 53 53 52 55 56 56 56 55 56 56 55 55 54 53
59 60 59 59 59 60 60 59 58 57 57 57 56 55 55 53 46 48 52 59 59 61 59 60 59 58 58 58 58 58 58 58 57 58 58 57 57 57 56 55 55 53 53
58 59 59 59 60 60 59 58 58 58 57 57 57 54 54 54 46 50 57 61 60 60 61 60 59 58 48 50 57 57 56 55 50 49 50 49 48 49 53 55 52 51 50
57 58 59 59 60 60 59 59 58 58 60 59 57 56 52 56 44 48 57 59 58 58 58 57 51 55 47 49 57 57 56 56 57 56 55 52 52 50 49 55 52 50 51
57 57 59 60 60 60 59 59 59 58 58 58 57 56 54 54 52 47 50 57 57 57 57 57 55 46 46 47 52 57 55 57 54 57 56 56 56 55 55 55 53 53 52
56 57 59 60 61 61 60 59 59 57 56 55 57 55 55 54 48 46 48 51 53 57 57 57 52 44 45 46 52 44 47 53 57 57 56 56 55 53 53 55 55 54 54
57 58 59 61 61 60 60 59 58 56 57 58 58 57 56 55 54 46 46 46 50 56 57 52 44 43 44 46 45 47 51 57 56 56 55 55 54 55 54 54 55 55 54
57 58 59 60 59 60 61 60 59 56 55 57 58 57 56 55 55 55 54 52 48 51 48 50 50 50 50 50 51 54 58 57 56 56 56 56 56 55 54 53 52 51 51
57 57 58 59 59 59 59 59 60 58 56 57 57 57 56 56 56 52 53 55 54 52 51 52 56 56 55 56 57 57 57 57 56 57 57 57 56 56 55 53 52 50 50
55 57 57 58 59 58 55 51 42 45 49 49 51 55 57 52 44 44 46 46 43 45 53 52 55 57 56 57 57 57 56 56 57 57 56 57 57 57 56 54 52 51 50
54 56 56 56 57 54 52 52 50 49 43 44 46 47 50 48 43 44 44 43 42 47 53 53 54 56 55 55 56 57 56 57 56 58 57 56 56 57 52 56 55 53 51
53 50 55 55 55 53 52 50 50 55 57 55 45 45 44 43 44 43 42 45 51 50 54 54 54 55 56 56 57 56 55 56 57 57 56 56 56 56 54 55 55 54 53
54 54 55 54 53 53 52 51 50 52 57 55 51 46 42 40 41 41 42 56 55 54 54 55 55 54 55 56 56 56 56 55 55 55 56 55 55 55 54 54 53 46 47
53 49 51 54 54 53 53 52 51 51 52 54 54 54 47 48 51 50 50 57 57 56 56 56 56 55 54 54 55 55 55 53 53 55 55 54 54 53 53 52 52 51 49
52 50 47 54 54 54 53 52 51 52 51 51 54 52 44 55 55 55 54 55 56 57 57 56 56 56 56 54 53 53 53 53 52 53 54 54 54 53 52 52 51 50 49
52 51 51 51 53 53 53 54 51 51 52 51 50 50 39 54 55 55 55 55 57 57 57 57 56 56 56 56 54 53 53 52 52 52 53 53 53 53 53 52 50 50 49
52 51 51 51 50 47 48 52 54 52 50 51 52 51 48 52 55 55 55 56 56 57 58 56 57 57 57 56 55 54 53 52 52 52 52 53 53 52 52 52 51 50 49
52 52 50 50 50 49 49 49 50 47 52 50 50 51 50 51 54 55 55 55 55 56 57 57 56 54 55 55 53 52 53 52 52 51 52 52 53 50 52 52 52 51 51
55 56 54 54 53 50 50 49 49 48 48 51 50 49 50 51 52 53 53 53 53 53 53 53 54 55 53 51 51 51 45 38 47 46 50 50 50 51 52 52 52 51 46
59 58 57 56 54 52 50 50 50 48 47 47 48 50 49 49 50 50 51 52 52 52 52 52 51 50 49 49 49 46 40 39 40 37 48 50 50 50 50 50 51 51 47

GFSGL_sfc_dewp_045.txt.gz
Dewpoint
58 58 58 59 59 59 59 59 59 59 59 59 59 59 59 59 59 58 57 59 58 57 57 58 57 57 59 58 58 56 55 57 57 58 60 60 58 57 59 60 60 59 58
58 58 58 59 58 59 59 60 58 59 59 59 59 59 59 59 59 58 58 58 58 58 58 56 58 59 59 58 57 55 56 56 57 57 58 58 57 57 57 57 59 59 58
58 59 58 58 58 59 59 59 58 58 59 59 60 59 59 59 59 59 59 59 59 59 59 58 58 58 58 58 56 56 57 58 57 58 57 58 57 57 56 56 55 55 57
58 59 58 58 59 59 59 59 59 59 59 59 58 59 60 60 60 60 59 58 59 59 60 59 60 59 59 59 58 58 58 58 57 58 56 56 57 57 56 55 55 55 56
58 58 58 58 59 59 59 59 59 59 59 59 60 60 59 59 59 59 58 58 59 60 60 61 60 60 58 59 59 59 58 57 57 57 56 56 56 56 55 56 54 54 54
58 58 59 59 59 59 59 59 58 58 60 59 59 58 57 57 49 53 57 59 58 59 59 59 60 58 56 54 56 56 57 57 57 56 56 55 55 56 56 55 54 53 51
58 59 59 59 59 59 59 58 57 57 58 57 56 56 55 54 46 48 52 59 58 59 59 60 60 58 57 58 53 53 53 53 54 56 56 56 55 56 56 55 55 54 53
59 59 59 59 59 59 59 57 56 56 57 55 55 55 54 54 46 47 51 58 58 59 59 60 58 58 57 57 58 58 58 58 57 57 57 57 57 57 57 56 54 53 52
59 59 59 59 59 59 58 57 56 56 56 55 55 54 53 53 46 47 55 60 60 60 60 59 59 57 48 49 57 56 55 55 50 50 50 48 47 49 54 55 53 52 50
58 59 59 59 60 59 58 57 56 57 59 57 55 53 51 54 46 48 56 59 58 58 58 57 51 54 46 49 57 56 55 55 55 54 54 51 53 51 50 55 53 51 50
58 59 59 59 59 59 58 57 57 59 59 57 55 53 54 55 53 46 50 57 58 58 57 57 54 45 45 46 51 57 55 56 53 56 56 55 55 55 56 54 53 51 50
57 58 59 59 60 59 58 57 57 56 56 55 55 53 56 56 47 46 46 50 52 58 57 56 51 44 44 45 51 45 47 52 56 56 55 55 54 55 55 54 53 53 53
57 58 59 60 60 59 58 59 58 56 57 56 56 56 56 56 55 45 43 45 49 56 57 52 44 43 43 45 44 45 50 56 56 55 55 55 55 54 53 53 53 53 53
57 58 59 59 58 59 59 59 57 57 57 57 57 56 56 55 56 55 53 51 48 51 48 50 49 49 49 50 51 54 56 56 55 55 55 53 53 53 52 53 52 52 52
57 58 59 59 59 58 59 58 58 56 56 57 58 56 56 54 56 52 52 54 55 52 53 55 56 56 55 56 57 57 56 56 56 54 55 54 54 53 53 52 52 50 50
57 58 59 59 58 58 56 54 41 45 48 48 48 53 56 50 44 43 43 43 43 44 54 56 56 56 56 56 57 57 57 54 55 56 55 56 56 55 54 52 51 50 50
57 57 58 58 59 57 55 55 54 49 43 43 43 46 48 47 41 42 41 40 41 46 52 55 56 56 57 57 57 57 56 56 55 56 56 56 55 55 53 53 52 52 50
57 50 57 58 58 57 56 55 55 53 53 54 43 45 42 42 41 40 40 44 51 49 52 54 55 55 56 56 56 56 56 55 56 56 55 55 55 55 54 54 55 54 53
55 56 56 57 57 55 54 53 52 54 56 55 50 46 41 39 39 38 41 54 53 52 52 53 55 56 55 55 55 56 56 56 56 56 56 55 55 56 55 55 55 44 47
54 50 52 55 54 53 52 51 50 53 55 55 54 53 48 50 52 51 50 54 54 53 53 53 54 55 56 56 56 56 56 53 54 55 56 56 56 55 55 55 54 53 51
53 52 48 54 53 54 53 51 50 51 54 55 55 52 42 54 54 54 54 54 55 56 55 55 55 55 54 55 55 55 55 55 55 55 54 54 54 54 55 54 54 53 53
53 53 53 54 54 53 53 52 52 51 51 53 54 51 37 54 56 55 55 55 56 57 57 57 56 56 56 55 53 54 55 55 54 53 53 54 54 54 54 53 52 52 51
55 53 52 53 54 49 51 53 52 52 51 51 51 51 47 52 55 55 55 55 55 56 57 57 57 56 56 57 57 55 53 53 53 53 52 52 53 53 54 53 53 52 51
56 55 53 52 51 52 52 53 54 48 51 52 52 51 50 52 54 55 56 56 56 56 57 57 57 57 57 57 57 57 56 56 55 54 53 53 52 50 52 52 52 52 52
57 56 56 54 53 52 51 52 51 53 53 52 51 52 51 50 51 54 55 56 56 56 56 57 57 57 57 57 57 56 52 43 52 49 53 53 52 52 52 52 52 52 51
55 57 57 57 56 53 51 50 51 51 50 52 52 51 51 51 51 52 53 54 54 55 55 55 56 56 56 56 55 52 44 41 44 40 51 52 51 51 51 51 51 51 50

GFSGL_sfc_dewp_048.txt.gz
Dewpoint
59 59 59 59 60 60 60 60 60 60 60 60 60 60 60 60 60 60 59 60 60 60 60 60 59 60 61 60 59 59 59 59 57 59 60 59 58 59 60 62 62 61 59
58 58 59 59 59 59 60 60 60 60 60 60 60 60 60 60 60 60 59 60 59 59 58 58 59 60 60 60 59 58 59 61 58 56 57 57 56 58 59 59 59 60 59
58 58 58 58 58 59 60 60 59 60 60 60 60 60 60 60 60 60 60 59 59 59 59 58 59 59 59 59 59 58 60 60 58 57 56 57 57 56 56 57 56 57 58
58 58 58 58 59 60 60 59 60 60 60 60 60 60 60 60 60 60 60 60 60 59 60 60 60 59 59 58 59 59 60 59 58 57 56 55 55 56 55 54 54 56 56
58 58 58 59 59 60 60 60 60 60 60 60 60 61 60 60 59 60 59 59 60 60 60 60 60 60 58 58 59 59 59 58 57 56 55 55 54 54 53 54 53 54 54
58 58 59 59 59 59 60 60 60 59 60 60 60 59 59 57 47 51 58 59 60 60 60 60 60 57 56 55 56 55 58 59 58 56 55 54 55 55 55 54 53 53 50
58 58 59 59 59 59 60 59 58 58 59 59 59 58 57 56 46 47 52 60 60 60 60 60 60 59 58 59 53 53 52 52 55 57 55 56 55 55 55 54 55 54 53
58 59 59 59 59 59 59 58 58 58 58 57 57 57 56 55 46 47 50 60 60 60 60 60 59 58 58 59 58 57 58 58 58 58 58 58 58 58 57 57 54 52 52
58 59 59 59 59 59 58 58 57 57 58 56 56 56 56 57 46 45 55 61 60 60 60 59 58 57 48 49 58 58 56 55 50 50 49 49 47 49 53 55 54 53 51
58 59 59 59 59 59 58 58 58 58 58 57 56 55 52 57 45 46 56 60 59 58 58 57 50 53 45 48 57 57 55 55 55 55 53 51 52 51 51 56 54 53 52
59 59 59 60 60 59 58 59 58 60 58 57 55 56 57 55 52 47 50 60 58 58 57 56 53 45 45 46 51 57 55 56 53 56 56 56 56 56 56 56 56 54 51
59 59 59 59 60 59 59 58 59 60 58 56 55 56 58 56 48 46 46 51 53 58 57 56 51 43 44 45 50 45 47 52 56 56 55 55 56 55 55 55 56 55 55
58 59 59 59 59 59 59 58 58 58 56 55 56 56 57 57 55 44 43 44 48 57 57 51 42 42 43 46 45 46 50 56 55 55 54 55 55 56 56 55 55 55 56
58 58 59 59 59 59 59 58 58 58 58 56 55 54 57 56 57 55 54 53 48 50 48 49 49 49 49 50 52 54 57 56 56 55 55 55 55 56 56 56 54 54 54
58 58 59 59 59 58 58 57 58 59 57 57 56 57 57 56 56 52 53 56 56 51 53 56 56 55 54 56 57 56 56 56 56 56 56 55 55 55 55 55 55 54 54
58 58 59 58 59 58 56 54 42 45 48 48 47 53 56 49 45 44 42 43 43 46 56 56 55 56 56 56 57 56 56 55 56 56 56 55 54 55 55 55 54 55 54
58 59 58 58 58 57 56 56 56 51 43 43 42 44 48 46 41 41 40 40 40 48 56 56 56 56 56 57 57 56 56 56 57 56 56 56 56 55 53 55 54 54 53
58 51 59 59 58 58 57 57 57 56 57 56 44 46 41 40 40 39 39 44 53 52 56 57 57 57 57 57 57 57 57 57 57 56 56 56 56 56 55 55 55 54 54
57 57 58 59 58 56 57 57 56 56 55 56 53 46 40 38 38 38 42 55 55 55 54 55 56 56 57 57 57 56 56 56 57 57 57 56 57 57 56 56 55 47 49
57 51 54 58 56 56 56 55 54 54 56 55 55 54 48 48 51 50 51 55 55 55 55 55 56 56 56 56 56 55 56 55 57 57 57 57 57 57 56 56 56 56 54
55 54 49 56 56 55 55 55 54 53 56 56 56 53 44 55 55 55 54 55 56 55 54 55 55 56 57 57 56 56 56 56 57 57 57 57 57 57 57 57 56 56 56
54 54 55 55 55 55 54 54 53 52 54 56 56 51 38 55 56 56 56 56 56 57 57 56 55 55 55 56 57 57 57 57 57 57 56 56 56 56 56 56 56 56 55
55 54 55 55 54 49 53 54 53 52 52 53 55 53 48 54 56 56 56 56 57 57 58 58 57 56 56 57 56 56 56 56 57 57 56 56 56 56 56 56 55 54 54
57 55 54 54 54 54 54 54 53 48 52 52 52 54 53 53 55 57 57 57 56 57 57 58 58 58 58 58 58 57 56 56 56 56 57 56 56 53 55 55 54 54 55
58 58 56 56 54 54 54 54 55 53 52 53 53 53 52 53 54 56 57 57 57 57 57 57 58 58 58 59 58 58 54 44 54 51 56 56 56 56 54 53 54 55 54
54 54 54 55 55 54 54 54 53 53 53 54 54 53 53 53 52 52 53 56 57 57 57 57 57 58 58 58 58 53 45 43 47 42 56 57 56 55 55 55 54 54 54